Location: Mannheim
(49.4880°N, 8.4650°E)
Time: 13:04:27
(UTC+02:00)

ARIANE 6 FM1 Upper Stage - Visible Passes

Search period start: 20 September 2024 00:00
Search period end: 30 September 2024 00:00
Orbit: 566 x 594 km, 62.0° (Epoch: 19 September)

Date Brightness Start Highest point End Pass type
(mag) Time Alt. Az. Time Alt. Az. Time Alt. Az.
20 Sep 5.5 02:56:52 17° NE 02:56:52 17° NE 02:58:30 10° ENE visible
20 Sep 3.3 04:33:16 27° NNW 04:35:26 57° NE 04:39:45 10° ESE visible
20 Sep 3.8 06:10:54 10° WNW 06:14:32 26° WSW 06:18:09 10° S visible
20 Sep 4.4 20:17:44 10° SSE 20:20:08 15° ESE 20:21:45 12° E visible
20 Sep 2.9 21:54:34 10° SW 21:58:11 63° SW 21:58:11 63° SW visible
21 Sep 5.7 03:03:23 12° ENE 03:03:23 12° ENE 03:03:47 10° ENE visible
21 Sep 2.8 04:39:50 73° NNW 04:40:12 81° NE 04:44:34 10° SE visible
21 Sep 4.2 06:16:18 11° WNW 06:19:02 17° WSW 06:21:54 10° SSW visible
21 Sep 3.9 20:21:17 10° S 20:24:36 22° ESE 20:27:56 10° ENE visible
21 Sep 3.1 21:59:21 10° WSW 22:03:36 63° NW 22:04:20 53° N visible
21 Sep 5.8 23:40:26 10° WNW 23:40:43 11° WNW 23:40:43 11° WNW visible
22 Sep 4.0 04:46:53 31° SSE 04:46:53 31° SSE 04:49:14 10° SE visible
22 Sep 4.7 06:23:22 11° WSW 06:23:28 11° WSW 06:24:44 10° SW visible
22 Sep 3.4 20:25:17 10° S 20:29:07 33° SE 20:33:01 10° ENE visible
22 Sep 3.8 22:04:15 10° WSW 22:08:23 45° NW 22:09:55 32° NNE visible
22 Sep 5.8 23:45:41 10° WNW 23:46:16 12° NW 23:46:16 12° NW visible
23 Sep 2.9 20:29:33 10° SSW 20:33:41 51° SE 20:37:54 10° NE visible
23 Sep 4.3 22:09:17 10° W 22:13:13 34° NNW 22:15:04 24° NNE visible
23 Sep 5.9 23:50:54 10° NW 23:51:24 12° NW 23:51:24 12° NW visible
24 Sep 2.6 20:34:02 10° SW 20:38:18 76° SE 20:42:38 10° NE visible
24 Sep 4.7 22:14:23 10° W 22:18:05 27° NNW 22:19:57 20° NNE visible
24 Sep 6.0 23:56:02 10° NW 23:56:16 11° NW 23:56:16 11° NW visible
25 Sep 2.9 20:38:41 10° SW 20:42:58 74° NW 20:47:19 10° NE visible
25 Sep 5.0 22:19:33 10° WNW 22:22:59 22° NNW 22:24:39 18° N visible
26 Sep 3.5 20:43:29 10° WSW 20:47:41 52° NW 20:51:56 10° NE visible
26 Sep 5.1 22:24:45 10° WNW 22:27:54 19° NNW 22:29:13 17° N visible
27 Sep 4.1 20:48:23 10° WSW 20:52:26 38° NW 20:56:31 10° NE visible
27 Sep 5.2 22:29:56 10° NW 22:32:51 17° N 22:33:42 16° N visible
28 Sep 4.5 20:53:25 10° W 20:57:13 30° NNW 21:01:06 10° NNE visible
28 Sep 5.3 22:35:04 10° NW 22:37:49 16° N 22:38:08 16° N visible
29 Sep 4.8 20:58:30 10° W 21:02:04 24° NNW 21:05:39 10° NNE visible
29 Sep 5.4 22:40:06 10° NW 22:42:30 16° N 22:42:30 16° N visible
